Location: Kielce
(50.8833°N, 20.6167°E)
Time: 21:15:24
(UTC+02:00)

SR - Pass Details

Date: 25 April 2021
Orbit: 573 x 882 km, 66.7° (Epoch: 09 May)

Event Time Altitude Azimuth Distance (km) Brightness Sun altitude
Rises 07:49:47 0° 228° (SW) 3,364 ? 21.9°
Reaches altitude 10° 07:52:13 10° 232° (SW) 2,466 ? 22.3°
Maximum altitude 07:57:56 62° 313° (NW) 983 ? 23.2°
Drops below altitude 10° 08:03:51 10° 34° (NE) 2,550 ? 24.1°
Sets 08:06:24 0° 38° (NE) 3,486 ? 24.5°
